WB5HZM-3 Weather Reports


time (UTC)temp
C
wind
direction
speed
KPH
gust
KPH
rain 1hr
cm
rain 24hr
cm
rain mn
cm
humidity
%
barometer
mb
20260509201305 26 57 6.4 8.0 0.00 0.00 0.00 84 1009.9
20260509200303 26 67 3.2 4.8 0.00 0.00 0.00 84 1010.0
20260509195259 26 67 4.8 8.0 0.00 0.00 0.00 84 1010.2
20260509194254 26 67 6.4 8.0 0.00 0.00 0.00 85 1010.2
20260509193310 26 63 4.8 6.4 0.00 0.00 0.00 85 1010.3
20260509192310 26 86 4.8 6.4 0.00 0.00 0.00 84 1010.5
20260509191306 25 80 4.8 8.0 0.00 0.00 0.00 85 1010.5
20260509190302 25 83 6.4 9.7 0.00 0.00 0.00 85 1010.7
20260509185301 25 91 6.4 9.7 0.00 0.00 0.00 85 1010.8
20260509184255 25 91 6.4 11.3 0.00 0.00 0.00 85 1010.8
20260509183309 25 90 4.8 9.7 0.00 0.00 0.00 85 1011.2
20260509182306 25 90 9.7 12.9 0.00 0.00 0.00 85 1011.2
20260509181303 25 103 6.4 9.7 0.00 0.00 0.00 85 1011.3
20260509180259 24 90 4.8 6.4 0.00 0.00 0.00 85 1011.4
20260509175254 24 74 6.4 8.0 0.00 0.00 0.00 84 1011.5
20260509174313 24 80 8.0 9.7 0.00 0.00 0.00 84 1011.6
20260509173309 24 85 6.4 9.7 0.00 0.00 0.00 84 1011.6
20260509172306 24 46 8.0 8.0 0.00 0.00 0.00 84 1011.7
20260509171305 24 34 9.7 12.9 0.00 0.00 0.00 84 1011.6
20260509170301 24 68 8.0 9.7 0.00 0.00 0.00 84 1011.4
20260509165257 23 83 8.0 11.3 0.00 0.00 0.00 84 1011.4
20260509164313 23 63 4.8 6.4 0.00 0.00 0.00 84 1011.8
20260509163312 23 39 4.8 8.0 0.00 0.00 0.00 84 1012.1
20260509162307 23 38 4.8 6.4 0.00 0.00 0.00 84 1012.1
20260509161303 23 36 6.4 8.0 0.00 0.00 0.00 84 1012.3
20260509160303 24 34 4.8 6.4 0.00 0.00 0.00 84 1012.4
20260509155259 24 257 0.0 0.0 0.00 0.00 0.00 84 1012.3
20260509154314 24 219 0.0 0.0 0.00 0.00 0.00 84 1012.4
20260509153308 23 217 0.0 3.2 0.00 0.00 0.00 84 1012.3
20260509152308 23 207 1.6 6.4 0.00 0.00 0.00 84 1012.0
20260509151304 23 71 4.8 4.8 0.00 0.00 0.00 84 1011.9
20260509150300 23 340 3.2 6.4 0.00 0.00 0.00 84 1011.8
20260509145258 23 337 4.8 6.4 0.00 0.00 0.00 84 1011.8
20260509144254 23 336 3.2 8.0 0.00 0.00 0.00 84 1011.4
20260509143310 23 314 3.2 6.4 0.00 0.00 0.00 84 1011.2
20260509142310 23 183 3.2 6.4 0.00 0.00 0.00 84 1010.7
20260509141306 23 101 1.6 8.0 0.00 0.00 0.00 84 1010.8
20260509140302 23 163 3.2 6.4 0.00 0.00 0.00 84 1010.9
20260509135256 23 112 1.6 6.4 0.00 0.00 0.00 84 1011.0
20260509134256 23 98 3.2 6.4 0.00 0.00 0.00 84 1011.5
20260509133312 23 174 3.2 6.4 0.00 0.00 0.00 84 1011.7
20260509132307 23 150 1.6 4.8 0.00 0.00 0.00 84 1011.8
20260509131305 22 134 0.0 3.2 0.00 0.00 0.00 84 1011.7
20260509130300 22 126 0.0 0.0 0.00 0.00 0.00 84 1011.9
20260509125255 22 126 0.0 0.0 0.00 0.00 0.00 84 1012.1
20260509124255 22 126 0.0 0.0 0.00 0.00 0.00 84 1012.0
20260509123310 22 126 0.0 0.0 0.00 0.00 0.00 84 1012.0
20260509122306 22 126 0.0 0.0 0.00 0.00 0.00 84 1011.9
20260509121302 22 126 0.0 0.0 0.00 0.00 0.00 84 1011.8
20260509120302 22 126 0.0 0.0 0.00 0.00 0.00 84 1011.7
20260509115257 22 121 0.0 3.2 0.00 0.00 0.00 84 1011.6
20260509114312 22 121 1.6 6.4 0.00 0.00 0.00 84 1011.2
20260509113309 22 121 3.2 4.8 0.00 0.00 0.00 84 1011.1
20260509112307 22 121 0.0 6.4 0.00 0.00 0.00 84 1010.9
20260509111301 22 101 0.0 0.0 0.00 0.00 0.00 84 1010.5
20260509110257 22 101 0.0 0.0 0.00 0.00 0.00 84 1010.3
20260509105255 22 101 0.0 1.6 0.00 0.00 0.00 84 1010.6
20260509104311 22 101 0.0 1.6 0.00 0.00 0.00 84 1010.8
20260509103307 22 101 0.0 1.6 0.00 0.00 0.00 84 1010.9
20260509102307 22 101 1.6 1.6 0.00 0.00 0.00 84 1010.9
20260509101303 22 101 0.0 0.0 0.00 0.00 0.00 84 1011.1
20260509100259 22 101 0.0 0.0 0.00 0.00 0.00 84 1011.2
20260509095259 22 101 0.0 0.0 0.00 0.00 0.00 84 1011.0
20260509094255 22 101 0.0 4.8 0.00 0.00 0.00 84 1010.9
20260509093311 22 106 0.0 1.6 0.00 0.00 0.00 84 1011.0
20260509092307 22 106 0.0 0.0 0.00 0.00 0.00 84 1011.0
20260509091307 22 106 0.0 0.0 0.00 0.00 0.00 84 1011.0
20260509090303 22 106 0.0 0.0 0.00 0.00 0.00 84 1011.1
20260509085259 22 106 0.0 1.6 0.00 0.00 0.00 84 1011.1
20260509084257 22 106 0.0 1.6 0.00 0.00 0.00 84 1011.0
20260509083313 22 106 0.0 3.2 0.00 0.00 0.00 84 1011.0
20260509082308 22 105 0.0 3.2 0.00 0.00 0.00 84 1011.3
20260509081304 22 104 0.0 1.6 0.00 0.00 0.00 84 1011.3
20260509080304 22 104 0.0 6.4 0.00 0.00 0.00 84 1011.3
20260509075300 22 106 1.6 4.8 0.00 0.00 0.00 84 1011.2
20260509074256 22 103 3.2 6.4 0.00 0.00 0.00 84 1011.0
20260509073256 22 102 3.2 6.4 0.00 0.00 0.00 84 1010.9
20260509072312 22 140 1.6 4.8 0.00 0.00 0.00 85 1011.1
20260509071308 22 144 1.6 4.8 0.00 0.00 0.00 85 1011.3
20260509070308 22 133 3.2 4.8 0.00 0.00 0.00 85 1011.4
20260509065301 22 149 1.6 4.8 0.00 0.00 0.00 85 1011.3
20260509064256 22 149 0.0 3.2 0.00 0.00 0.00 84 1011.2
20260509063312 22 149 1.6 4.8 0.00 0.00 0.00 85 1011.4
20260509062311 22 132 1.6 6.4 0.00 0.00 0.00 85 1011.4
20260509061305 22 175 1.6 6.4 0.00 0.00 0.00 85 1011.5
20260509060300 22 161 1.6 6.4 0.00 0.00 0.00 85 1011.6
20260509055300 22 101 1.6 9.7 0.00 0.00 0.00 85 1011.6
20260509054254 22 185 1.6 6.4 0.00 0.00 0.00 85 1011.6
20260509053310 22 88 3.2 9.7 0.00 0.00 0.00 85 1011.7
20260509052307 22 121 3.2 9.7 0.00 0.00 0.00 85 1011.7
20260509051305 22 189 3.2 9.7 0.00 0.00 0.00 85 1011.8
20260509050259 22 184 1.6 12.9 0.00 0.00 0.00 85 1011.8
20260509045255 22 115 4.8 12.9 0.00 0.00 0.00 85 1011.7
20260509044255 22 105 6.4 12.9 0.00 0.00 0.00 85 1011.5
20260509043311 22 129 3.2 8.0 0.00 0.00 0.00 85 1011.6
20260509042307 22 119 6.4 12.9 0.00 0.00 0.00 85 1011.8
20260509041306 22 144 1.6 9.7 0.00 0.00 0.00 86 1011.8
20260509040302 22 150 1.6 9.7 0.00 0.00 0.00 86 1011.6
20260509035257 22 142 4.8 11.3 0.00 0.00 0.00 86 1011.4
20260509034312 22 207 3.2 11.3 0.00 0.00 0.00 86 1011.4
20260509033311 22 182 3.2 12.9 0.00 0.00 0.00 86 1011.1
20260509032307 22 159 4.8 11.3 0.00 0.00 0.00 86 1011.2
20260509031302 22 205 3.2 19.3 0.00 0.00 0.00 86 1011.2
20260509030302 22 131 4.8 12.9 0.00 0.00 0.00 86 1011.2
20260509025258 22 130 6.4 14.5 0.00 0.00 0.00 86 1010.9
20260509024254 22 128 4.8 14.5 0.00 0.00 0.00 86 1010.8
20260509023309 22 175 6.4 16.1 0.00 0.00 0.00 86 1010.8
20260509022308 23 103 4.8 17.7 0.00 0.00 0.00 86 1010.6
20260509021302 23 155 6.4 12.9 0.00 0.00 0.00 85 1010.6
20260509020259 23 175 4.8 11.3 0.00 0.00 0.00 85 1010.6
20260509015258 23 111 1.6 11.3 0.00 0.00 0.00 85 1010.4
20260509014253 23 101 3.2 14.5 0.00 0.00 0.00 85 1010.5
20260509013310 23 148 1.6 11.3 0.00 0.00 0.00 85 1010.5
20260509012309 23 131 1.6 6.4 0.00 0.00 0.00 85 1010.5
20260509011304 23 169 1.6 6.4 0.00 0.00 0.00 84 1010.4
20260509010259 23 94 3.2 11.3 0.00 0.00 0.00 84 1010.5
20260509005255 23 184 3.2 9.7 0.00 0.00 0.00 84 1010.7
20260509004255 23 141 3.2 11.3 0.00 0.00 0.00 84 1010.6
20260509003309 23 136 4.8 12.9 0.00 0.00 0.00 84 1010.4
20260509002306 23 146 6.4 12.9 0.00 0.00 0.00 83 1010.2
20260509001306 24 178 6.4 14.5 0.00 0.00 0.00 84 1010.3
20260509000303 24 118 8.0 14.5 0.00 0.00 0.00 84 1010.5
20260508235256 24 149 3.2 9.7 0.00 0.00 0.00 84 1010.8
20260508234255 24 172 3.2 11.3 0.00 0.00 0.00 84 1010.8
20260508233311 24 115 3.2 6.4 0.00 0.00 0.00 84 1010.8
20260508232307 24 135 1.6 6.4 0.00 0.00 0.00 84 1010.9
20260508231303 24 115 1.6 6.4 0.00 0.00 0.00 84 1010.8
20260508230303 24 105 4.8 9.7 0.00 0.00 0.00 84 1010.7
20260508225259 24 139 3.2 11.3 0.00 0.00 0.00 84 1010.5
20260508224254 24 103 6.4 12.9 0.00 0.00 0.00 84 1010.5
20260508223255 24 188 1.6 11.3 0.00 0.00 0.00 84 1010.7
20260508222310 24 119 6.4 12.9 0.00 0.00 0.00 84 1010.7
20260508221304 24 91 6.4 11.3 0.00 0.00 0.00 84 1010.7
20260508220301 24 119 6.4 9.7 0.00 0.00 0.00 83 1010.7
20260508215300 24 97 6.4 9.7 0.00 0.00 0.00 83 1010.7
20260508214254 24 88 4.8 9.7 0.00 0.00 0.00 83 1010.8
20260508213310 24 311 1.6 3.2 0.00 0.00 0.00 83 1010.8
20260508212310 24 311 1.6 3.2 0.00 0.00 0.00 83 1010.7
20260508211304 23 311 3.2 4.8 0.00 0.00 0.00 83 1010.9
20260508210300 23 311 1.6 4.8 0.00 0.00 0.00 83 1011.2
20260508205301 23 311 3.2 4.8 0.00 0.00 0.00 82 1011.4
20260508204257 23 310 3.2 4.8 0.00 0.00 0.00 82 1011.4
20260508203313 23 310 3.2 4.8 0.00 0.00 0.00 82 1011.5
20260508202308 23 310 3.2 6.4 0.00 0.00 0.00 83 1011.6